• In Moldova, Republic
  • List of Countries
  • For 7 days
  • Water Temperature
  • Satellite Maps
  • Weather Map
  • Weather Widgets
  • user-avatar
    Login

    Hourly Weather Korçe

    Today, 16 July, Monday

    Time Temperature Precipitation Wind Pressure Humidity
    00:00 +18°C° 0 mm 1 mps 667 mmHg 59%
    01:00 +18°C° 0 mm 1 mps 666 mmHg 57%
    02:00 +16°C° 0 mm 1 mps 666 mmHg 57%
    03:00 +16°C° 0 mm 1 mps 666 mmHg 58%
    04:00 +16°C° 0 mm 1 mps 666 mmHg 59%
    05:00 +19°C° 0 mm 1 mps 667 mmHg 57%
    06:00 +21°C° 0 mm 1 mps 667 mmHg 56%
    07:00 +22°C° 0 mm 1 mps 668 mmHg 54%
    08:00 +24°C° 0 mm 1 mps 668 mmHg 50%
    09:00 +25°C° 0 mm 2 mps 668 mmHg 46%
    10:00 +27°C° 0 mm 3 mps 669 mmHg 42%
    11:00 +27°C° 0 mm 3 mps 669 mmHg 41%
    12:00 +28°C° 0 mm 4 mps 669 mmHg 40%
    13:00 +28°C° 0 mm 5 mps 669 mmHg 39%
    14:00 +28°C° 0 mm 4 mps 669 mmHg 40%
    15:00 +28°C° 0 mm 4 mps 668 mmHg 41%
    16:00 +27°C° 0 mm 3 mps 668 mmHg 41%
    17:00 +25°C° 0 mm 3 mps 667 mmHg 49%
    18:00 +23°C° 0 mm 2 mps 667 mmHg 56%
    19:00 +21°C° 0 mm 1 mps 667 mmHg 63%
    20:00 +20°C° 0 mm 1 mps 666 mmHg 64%
    21:00 +20°C° 0 mm 1 mps 666 mmHg 65%
    22:00 +19°C° 0 mm 1 mps 666 mmHg 66%
    23:00 +19°C° 0 mm 1 mps 666 mmHg 65%

    Tomorrow, 17 July, Tuesday

    Time Temperature Precipitation Wind Pressure Humidity
    00:00 +17°C° 0 mm 2 mps 666 mmHg 64%
    01:00 +17°C° 0 mm 2 mps 665 mmHg 63%
    02:00 +17°C° 0 mm 2 mps 665 mmHg 63%
    03:00 +17°C° 0 mm 2 mps 665 mmHg 64%
    04:00 +17°C° 0 mm 2 mps 664 mmHg 64%
    05:00 +18°C° 0 mm 2 mps 665 mmHg 62%
    06:00 +20°C° 0 mm 2 mps 665 mmHg 60%
    07:00 +22°C° 0 mm 3 mps 665 mmHg 59%
    08:00 +24°C° 0.1 mm 3 mps 665 mmHg 54%
    09:00 +25°C° 0.1 mm 3 mps 665 mmHg 50%
    10:00 +27°C° 0.1 mm 4 mps 666 mmHg 45%
    11:00 +27°C° 0 mm 4 mps 665 mmHg 46%
    12:00 +27°C° 0 mm 4 mps 665 mmHg 46%
    13:00 +27°C° 0 mm 4 mps 665 mmHg 47%
    14:00 +26°C° 0.2 mm 4 mps 665 mmHg 50%
    15:00 +26°C° 0.2 mm 4 mps 664 mmHg 53%
    16:00 +25°C° 0.2 mm 4 mps 664 mmHg 56%
    17:00 +22°C° 0 mm 3 mps 664 mmHg 63%
    18:00 +21°C° 0 mm 3 mps 664 mmHg 70%
    19:00 +19°C° 0 mm 2 mps 664 mmHg 77%
    20:00 +18°C° 0 mm 2 mps 664 mmHg 82%
    21:00 +17°C° 0 mm 2 mps 664 mmHg 86%
    22:00 +16°C° 0 mm 2 mps 664 mmHg 91%
    23:00 +16°C° 0 mm 1 mps 664 mmHg 91%

    Day after tomorrow, 18 July, Wednesday

    Time Temperature Precipitation Wind Pressure Humidity
    00:00 +16°C° 0 mm 1 mps 664 mmHg 92%
    01:00 +15°C° 0 mm 1 mps 664 mmHg 93%
    02:00 +15°C° 0 mm 1 mps 664 mmHg 93%
    03:00 +15°C° 0 mm 1 mps 664 mmHg 92%
    04:00 +14°C° 0 mm 1 mps 664 mmHg 92%
    05:00 +16°C° 0 mm 1 mps 664 mmHg 86%
    06:00 +17°C° 0 mm 2 mps 664 mmHg 80%
    07:00 +19°C° 0 mm 2 mps 665 mmHg 74%
    08:00 +20°C° 0 mm 2 mps 665 mmHg 67%
    09:00 +23°C° 0 mm 2 mps 666 mmHg 59%
    10:00 +24°C° 0 mm 2 mps 666 mmHg 52%
    11:00 +25°C° 0 mm 3 mps 666 mmHg 49%
    12:00 +26°C° 0 mm 3 mps 666 mmHg 47%
    13:00 +26°C° 0 mm 3 mps 666 mmHg 45%
    14:00 +26°C° 0 mm 4 mps 666 mmHg 46%
    15:00 +26°C° 0 mm 4 mps 666 mmHg 48%
    16:00 +25°C° 0 mm 4 mps 666 mmHg 49%
    17:00 +22°C° 0 mm 3 mps 666 mmHg 56%
    18:00 +20°C° 0 mm 3 mps 665 mmHg 64%
    19:00 +19°C° 0 mm 2 mps 665 mmHg 71%
    20:00 +18°C° 0 mm 2 mps 665 mmHg 74%
    21:00 +17°C° 0 mm 2 mps 665 mmHg 77%
    22:00 +15°C° 0 mm 1 mps 665 mmHg 80%
    23:00 +15°C° 0 mm 1 mps 665 mmHg 79%

    19 July, Thursday

    Time Temperature Precipitation Wind Pressure Humidity
    00:00 +15°C° 0 mm 1 mps 665 mmHg 79%
    01:00 +15°C° 0 mm 1 mps 665 mmHg 79%
    02:00 +15°C° 0 mm 1 mps 665 mmHg 79%
    03:00 +14°C° 0 mm 1 mps 665 mmHg 78%
    04:00 +14°C° 0 mm 1 mps 664 mmHg 78%
    05:00 +16°C° 0 mm 1 mps 665 mmHg 72%
    06:00 +19°C° 0 mm 1 mps 665 mmHg 66%
    07:00 +21°C° 0 mm 1 mps 666 mmHg 60%
    08:00 +21°C° 0 mm 2 mps 666 mmHg 54%
    09:00 +24°C° 0 mm 2 mps 667 mmHg 47%
    10:00 +25°C° 0 mm 3 mps 667 mmHg 40%
    11:00 +26°C° 0 mm 4 mps 667 mmHg 40%
    12:00 +26°C° 0 mm 4 mps 667 mmHg 39%
    13:00 +27°C° 0 mm 5 mps 667 mmHg 38%
    14:00 +26°C° 0 mm 5 mps 667 mmHg 40%
    15:00 +26°C° 0 mm 5 mps 666 mmHg 42%
    16:00 +25°C° 0 mm 5 mps 666 mmHg 44%
    17:00 +22°C° 0 mm 4 mps 666 mmHg 52%
    18:00 +20°C° 0 mm 3 mps 666 mmHg 60%
    19:00 +18°C° 0 mm 2 mps 665 mmHg 68%
    20:00 +17°C° 0 mm 2 mps 666 mmHg 70%
    21:00 +18°C° 0 mm 1 mps 666 mmHg 72%
    22:00 +16°C° 0 mm 1 mps 666 mmHg 74%
    23:00 +15°C° 0 mm 1 mps 666 mmHg 75%

    20 July, Friday

    Time Temperature Precipitation Wind Pressure Humidity
    00:00 +15°C° 0 mm 1 mps 665 mmHg 75%
    01:00 +15°C° 0 mm 1 mps 665 mmHg 75%
    02:00 +15°C° 0 mm 1 mps 665 mmHg 77%
    03:00 +14°C° 0 mm 1 mps 665 mmHg 78%
    04:00 +14°C° 0 mm 1 mps 665 mmHg 80%
    05:00 +16°C° 0 mm 1 mps 666 mmHg 75%
    06:00 +19°C° 0 mm 1 mps 666 mmHg 69%
    07:00 +21°C° 0 mm 1 mps 667 mmHg 64%
    08:00 +22°C° 0 mm 1 mps 667 mmHg 57%
    09:00 +24°C° 0 mm 1 mps 667 mmHg 49%
    10:00 +25°C° 0 mm 2 mps 668 mmHg 42%
    11:00 +26°C° 0 mm 2 mps 668 mmHg 40%
    12:00 +27°C° 0 mm 2 mps 668 mmHg 39%
    13:00 +28°C° 0 mm 3 mps 668 mmHg 37%
    14:00 +27°C° 0 mm 3 mps 668 mmHg 39%
    15:00 +27°C° 0 mm 3 mps 668 mmHg 40%
    16:00 +27°C° 0 mm 3 mps 668 mmHg 41%
    17:00 +25°C° 0 mm 2 mps 667 mmHg 48%
    18:00 +23°C° 0 mm 2 mps 667 mmHg 56%
    19:00 +20°C° 0 mm 1 mps 666 mmHg 63%
    20:00 +19°C° 0 mm 1 mps 666 mmHg 65%
    21:00 +19°C° 0 mm 1 mps 666 mmHg 67%
    22:00 +18°C° 0 mm 1 mps 666 mmHg 70%
    23:00 +16°C° 0 mm 1 mps 666 mmHg 69%

    21 July, Saturday

    Time Temperature Precipitation Wind Pressure Humidity
    00:00 +16°C° 0 mm 1 mps 666 mmHg 69%
    01:00 +16°C° 0 mm 1 mps 666 mmHg 69%
    02:00 +15°C° 0 mm 1 mps 666 mmHg 65%
    03:00 +15°C° 0 mm 1 mps 666 mmHg 61%
    04:00 +15°C° 0 mm 1 mps 666 mmHg 58%
    05:00 +18°C° 0 mm 1 mps 666 mmHg 53%
    06:00 +20°C° 0 mm 1 mps 667 mmHg 48%
    07:00 +22°C° 0 mm 1 mps 667 mmHg 43%
    08:00 +24°C° 0 mm 1 mps 668 mmHg 39%
    09:00 +26°C° 0 mm 2 mps 668 mmHg 35%
    10:00 +28°C° 0 mm 2 mps 668 mmHg 30%
    11:00 +29°C° 0 mm 3 mps 668 mmHg 31%
    12:00 +29°C° 0 mm 3 mps 668 mmHg 31%
    13:00 +30°C° 0 mm 4 mps 668 mmHg 31%
    14:00 +29°C° 0 mm 4 mps 667 mmHg 33%
    15:00 +29°C° 0 mm 4 mps 667 mmHg 35%
    16:00 +28°C° 0 mm 5 mps 666 mmHg 38%
    17:00 +26°C° 0 mm 4 mps 666 mmHg 45%
    18:00 +22°C° 0 mm 3 mps 665 mmHg 53%
    19:00 +20°C° 0 mm 3 mps 664 mmHg 61%
    20:00 +19°C° 0 mm 3 mps 664 mmHg 65%
    21:00 +18°C° 0 mm 3 mps 664 mmHg 70%
    22:00 +17°C° 0 mm 2 mps 663 mmHg 74%
    23:00 +16°C° 0.1 mm 2 mps 663 mmHg 77%
    Show more